When you browse on this site, cookies collect data to enhance your experience and personalize the content and advertising you see.
Visit our Privacy Policy to learn more. By continuing to use the site, you agree to this use of cookies and data.
  • en France
  • Liste des pays
  • À 7 jours
  • Température de l'eau
  • Carte satellitaire
  • Carte météo
  • Widgets météo
  • user-avatar
    Se connecter

    Météo par heure à Salzbourg

    Ce jour, 16 Février, Samedi

    Heure Température Précipitation Vent Pression Humidité
    00:00 -5°C° 0 mm 2 m/s 632 mmHg 59%
    01:00 -5°C° 0 mm 2 m/s 632 mmHg 59%
    02:00 -5°C° 0 mm 2 m/s 632 mmHg 59%
    03:00 -5°C° 0 mm 2 m/s 632 mmHg 59%
    04:00 -4°C° 0 mm 2 m/s 632 mmHg 59%
    05:00 -4°C° 0 mm 2 m/s 632 mmHg 59%
    06:00 -4°C° 0 mm 2 m/s 632 mmHg 59%
    07:00 -4°C° 0 mm 2 m/s 632 mmHg 58%
    08:00 -3°C° 0 mm 2 m/s 632 mmHg 68%
    09:00 +1°C° 0 mm 1 m/s 632 mmHg 77%
    10:00 +2°C° 0 mm 1 m/s 633 mmHg 87%
    11:00 +3°C° 0 mm 1 m/s 633 mmHg 89%
    12:00 +3°C° 0 mm 1 m/s 633 mmHg 91%
    13:00 +2°C° 0 mm 0 m/s 632 mmHg 93%
    14:00 +2°C° 0 mm 0 m/s 632 mmHg 93%
    15:00 +2°C° 0 mm 0 m/s 632 mmHg 93%
    16:00 +3°C° 0 mm 1 m/s 632 mmHg 93%
    17:00 +1°C° 0 mm 1 m/s 631 mmHg 85%
    18:00 0°C° 0 mm 1 m/s 631 mmHg 78%
    19:00 -3°C° 0 mm 2 m/s 631 mmHg 70%
    20:00 -3°C° 0 mm 2 m/s 631 mmHg 66%
    21:00 -4°C° 0 mm 2 m/s 631 mmHg 63%
    22:00 -4°C° 0 mm 2 m/s 631 mmHg 59%
    23:00 -5°C° 0 mm 2 m/s 631 mmHg 58%

    Demain, 17 Février, Dimanche

    Heure Température Précipitation Vent Pression Humidité
    00:00 -5°C° 0 mm 2 m/s 630 mmHg 56%
    01:00 -5°C° 0 mm 2 m/s 630 mmHg 55%
    02:00 -5°C° 0 mm 2 m/s 630 mmHg 54%
    03:00 -5°C° 0 mm 2 m/s 630 mmHg 54%
    04:00 -5°C° 0 mm 2 m/s 629 mmHg 53%
    05:00 -5°C° 0 mm 2 m/s 629 mmHg 53%
    06:00 -5°C° 0 mm 2 m/s 629 mmHg 53%
    07:00 -5°C° 0 mm 2 m/s 629 mmHg 52%
    08:00 -4°C° 0 mm 2 m/s 630 mmHg 60%
    09:00 -2°C° 0 mm 2 m/s 630 mmHg 68%
    10:00 +2°C° 0 mm 1 m/s 631 mmHg 77%
    11:00 +3°C° 0 mm 1 m/s 631 mmHg 81%
    12:00 +3°C° 0 mm 1 m/s 630 mmHg 85%
    13:00 +3°C° 0 mm 0 m/s 630 mmHg 90%
    14:00 +4°C° 0 mm 1 m/s 630 mmHg 90%
    15:00 +3°C° 0 mm 1 m/s 630 mmHg 90%
    16:00 +3°C° 0 mm 1 m/s 629 mmHg 90%
    17:00 +2°C° 0 mm 1 m/s 629 mmHg 82%
    18:00 0°C° 0 mm 1 m/s 629 mmHg 74%
    19:00 -3°C° 0 mm 2 m/s 629 mmHg 66%
    20:00 -4°C° 0 mm 2 m/s 628 mmHg 62%
    21:00 -4°C° 0 mm 2 m/s 628 mmHg 58%
    22:00 -5°C° 0 mm 2 m/s 628 mmHg 54%
    23:00 -5°C° 0 mm 2 m/s 628 mmHg 52%

    Après-demain, 18 Février, Lundi

    Heure Température Précipitation Vent Pression Humidité
    00:00 -5°C° 0 mm 2 m/s 628 mmHg 51%
    01:00 -5°C° 0 mm 2 m/s 627 mmHg 50%
    02:00 -5°C° 0 mm 2 m/s 627 mmHg 50%
    03:00 -6°C° 0 mm 2 m/s 627 mmHg 50%
    04:00 -6°C° 0 mm 2 m/s 627 mmHg 50%
    05:00 -6°C° 0 mm 2 m/s 627 mmHg 51%
    06:00 -6°C° 0 mm 2 m/s 627 mmHg 51%
    07:00 -6°C° 0 mm 2 m/s 627 mmHg 51%
    08:00 -4°C° 0 mm 2 m/s 627 mmHg 60%
    09:00 0°C° 0 mm 1 m/s 628 mmHg 68%
    10:00 +2°C° 0 mm 1 m/s 628 mmHg 76%
    11:00 +2°C° 0 mm 1 m/s 628 mmHg 80%
    12:00 +3°C° 0 mm 1 m/s 628 mmHg 84%
    13:00 +4°C° 0 mm 1 m/s 628 mmHg 88%
    14:00 +3°C° 0 mm 1 m/s 627 mmHg 90%
    15:00 +3°C° 0 mm 1 m/s 627 mmHg 91%
    16:00 +3°C° 0 mm 1 m/s 626 mmHg 92%
    17:00 +1°C° 0 mm 1 m/s 626 mmHg 87%
    18:00 0°C° 0 mm 1 m/s 626 mmHg 82%
    19:00 -4°C° 0 mm 2 m/s 626 mmHg 77%
    20:00 -4°C° 0 mm 2 m/s 626 mmHg 73%
    21:00 -4°C° 0 mm 2 m/s 626 mmHg 70%
    22:00 -5°C° 0 mm 2 m/s 626 mmHg 67%
    23:00 -5°C° 0 mm 2 m/s 626 mmHg 64%

    19 Février, Mardi

    Heure Température Précipitation Vent Pression Humidité
    00:00 -5°C° 0 mm 2 m/s 626 mmHg 62%
    01:00 -5°C° 0 mm 2 m/s 626 mmHg 60%
    02:00 -6°C° 0 mm 2 m/s 626 mmHg 59%
    03:00 -6°C° 0 mm 2 m/s 625 mmHg 59%
    04:00 -6°C° 0 mm 2 m/s 625 mmHg 58%
    05:00 -6°C° 0 mm 2 m/s 625 mmHg 59%
    06:00 -4°C° 0 mm 1 m/s 626 mmHg 60%
    07:00 -4°C° 0 mm 1 m/s 626 mmHg 60%
    08:00 -2°C° 0 mm 1 m/s 626 mmHg 68%
    09:00 -1°C° 0 mm 1 m/s 627 mmHg 75%
    10:00 +1°C° 0 mm 1 m/s 628 mmHg 82%
    11:00 +2°C° 0 mm 1 m/s 628 mmHg 83%
    12:00 +1°C° 0 mm 0 m/s 627 mmHg 84%
    13:00 +2°C° 0 mm 0 m/s 627 mmHg 85%
    14:00 +1°C° 0 mm 0 m/s 627 mmHg 87%
    15:00 +1°C° 0 mm 0 m/s 627 mmHg 88%
    16:00 +1°C° 0 mm 0 m/s 627 mmHg 90%
    17:00 -1°C° 0 mm 0 m/s 627 mmHg 86%
    18:00 -1°C° 0 mm 1 m/s 626 mmHg 82%
    19:00 -3°C° 0 mm 1 m/s 626 mmHg 78%
    20:00 -3°C° 0 mm 1 m/s 627 mmHg 77%
    21:00 -4°C° 0 mm 1 m/s 627 mmHg 75%
    22:00 -4°C° 0 mm 1 m/s 627 mmHg 73%
    23:00 -4°C° 0 mm 1 m/s 627 mmHg 72%

    20 Février, Mercredi

    Heure Température Précipitation Vent Pression Humidité
    00:00 -4°C° 0 mm 1 m/s 627 mmHg 71%
    01:00 -6°C° 0 mm 1 m/s 627 mmHg 70%
    02:00 -6°C° 0 mm 1 m/s 627 mmHg 69%
    03:00 -6°C° 0 mm 1 m/s 627 mmHg 68%
    04:00 -6°C° 0 mm 1 m/s 627 mmHg 67%
    05:00 -6°C° 0 mm 1 m/s 627 mmHg 66%
    06:00 -7°C° 0 mm 2 m/s 627 mmHg 65%
    07:00 -7°C° 0 mm 2 m/s 627 mmHg 64%
    08:00 -3°C° 0 mm 1 m/s 628 mmHg 69%
    09:00 -1°C° 0 mm 1 m/s 629 mmHg 73%
    10:00 +1°C° 0 mm 1 m/s 630 mmHg 77%
    11:00 +1°C° 0 mm 0 m/s 630 mmHg 79%
    12:00 +1°C° 0 mm 0 m/s 630 mmHg 80%
    13:00 +2°C° 0 mm 0 m/s 630 mmHg 82%
    14:00 +2°C° 0 mm 0 m/s 630 mmHg 84%
    15:00 +1°C° 0 mm 0 m/s 629 mmHg 85%
    16:00 +1°C° 0 mm 0 m/s 629 mmHg 87%
    17:00 0°C° 0 mm 0 m/s 629 mmHg 85%
    18:00 -1°C° 0 mm 1 m/s 629 mmHg 82%
    19:00 -2°C° 0 mm 1 m/s 629 mmHg 80%
    20:00 -3°C° 0 mm 1 m/s 629 mmHg 78%
    21:00 -3°C° 0 mm 1 m/s 629 mmHg 77%
    22:00 -3°C° 0 mm 1 m/s 629 mmHg 76%
    23:00 -3°C° 0 mm 1 m/s 629 mmHg 74%

    21 Février, Jeudi

    Heure Température Précipitation Vent Pression Humidité
    00:00 -3°C° 0 mm 1 m/s 629 mmHg 72%
    01:00 -4°C° 0 mm 1 m/s 629 mmHg 70%
    02:00 -4°C° 0 mm 1 m/s 629 mmHg 70%
    03:00 -3°C° 0 mm 1 m/s 629 mmHg 70%
    04:00 -3°C° 0 mm 1 m/s 629 mmHg 70%
    05:00 -3°C° 0 mm 1 m/s 629 mmHg 71%
    06:00 -3°C° 0 mm 1 m/s 629 mmHg 71%
    07:00 -3°C° 0 mm 1 m/s 629 mmHg 72%
    08:00 -2°C° 0 mm 1 m/s 630 mmHg 76%
    09:00 0°C° 0 mm 1 m/s 630 mmHg 79%
    10:00 0°C° 0 mm 0 m/s 631 mmHg 83%
    11:00 +1°C° 0 mm 0 m/s 631 mmHg 84%
    12:00 +1°C° 0 mm 0 m/s 630 mmHg 85%
    13:00 +1°C° 0 mm 0 m/s 630 mmHg 86%
    14:00 +1°C° 0 mm 0 m/s 630 mmHg 87%
    15:00 +1°C° 0 mm 0 m/s 630 mmHg 89%
    16:00 +1°C° 0 mm 0 m/s 629 mmHg 90%
    17:00 +1°C° 0 mm 1 m/s 629 mmHg 89%
    18:00 0°C° 0 mm 1 m/s 629 mmHg 88%
    19:00 0°C° 0 mm 1 m/s 629 mmHg 87%
    20:00 -1°C° 0 mm 1 m/s 629 mmHg 86%
    21:00 -1°C° 0 mm 1 m/s 629 mmHg 85%
    22:00 -1°C° 0 mm 1 m/s 629 mmHg 85%
    23:00 -2°C° 0 mm 1 m/s 629 mmHg 85%
    Voir plus